Location: Henau
(47.4548°N, 9.1164°E)
Time: 08:55:48
(UTC+00:00)

Cosmos 1844 Rocket - Pass Details

Date: 03 March 2021
Orbit: 826 x 843 km, 71.0° (Epoch: 13 April)

Event Time Altitude Azimuth Distance (km) Brightness Sun altitude
Rises 18:21:54 0° 333° (NNW) 3,376 6.3 -12.7°
Reaches altitude 10° 18:24:21 10° 336° (NNW) 2,438 5.5 -13.1°
Maximum altitude 18:29:57 73° 61° (ENE) 866 2.6 -14.0°
Drops below altitude 10° 18:35:30 10° 146° (SSE) 2,424 4.7 -14.9°
Enters shadow 18:36:01 - 147° (SSE) 2,621 4.9 -15.0°
